Location: Brookview Estates
(36.0476°N, 86.6931°W)
Time: 10:51:57
(UTC+00:00)

ARGOS - Pass Details

Date: 30 March 2020
Orbit: 820 x 834 km, 98.5° (Epoch: 25 May)

Event Time Altitude Azimuth Distance (km) Brightness Sun altitude
Exits shadow 02:12:04 10° 193° (SSW) 2,403 5.4 -25.2°
Maximum altitude 02:17:01 40° 262° (W) 1,215 4.3 -26.0°
Drops below altitude 10° 02:22:04 10° 331° (NNW) 2,439 6.3 -27.0°
Sets 02:24:34 0° 339° (NNW) 3,374 7.0 -27.4°
